TGL971C LFPG-LFRB

Flight info

Callsign TGL971C
Flight time 0h 58m
Altitude 34000
Route LGL UN491 UPALO/N0449F330 UN585 FEJAC DCT BADUR/N0375F180 T120 ANLEV
Aircraft A320/M-SDE3FGHIRWY/LB1

Departure

Time 2026-04-23 22:05
Airport Charles de Gaulle International Airport (LFPG)

Arrival

Time 2026-04-23 23:03
Airport Brest Bretagne airport (LFRB)
Time Latitude Longitude Altitude Speed Heading
2026-04-23 21:38 49.00554 2.56803 355 ft 0 kts 168°
2026-04-23 21:52 49.00575 2.56797 356 ft 4 kts 169°
2026-04-23 21:53 49.00602 2.56790 354 ft 4 kts 171°
2026-04-23 21:53 49.00624 2.56784 363 ft 4 kts 180°
2026-04-23 21:53 49.00644 2.56794 354 ft 4 kts 250°
2026-04-23 21:53 49.00648 2.56833 357 ft 3 kts 265°
2026-04-23 21:54 49.00648 2.56837 358 ft 0 kts 265°
2026-04-23 21:56 49.00647 2.56829 364 ft 3 kts 265°
2026-04-23 21:57 49.00643 2.56755 354 ft 11 kts 264°
2026-04-23 21:57 49.00635 2.56607 361 ft 17 kts 265°
2026-04-23 21:57 49.00625 2.56412 360 ft 19 kts 265°
2026-04-23 21:57 49.00613 2.56210 354 ft 19 kts 265°
2026-04-23 21:58 49.00591 2.56024 361 ft 17 kts 250°
2026-04-23 21:58 49.00568 2.55853 357 ft 16 kts 265°
2026-04-23 21:58 49.00560 2.55694 357 ft 15 kts 265°
2026-04-23 21:58 49.00551 2.55545 357 ft 14 kts 265°
2026-04-23 21:59 49.00537 2.55409 358 ft 12 kts 245°
2026-04-23 21:59 49.00474 2.55336 354 ft 11 kts 192°
2026-04-23 21:59 49.00399 2.55350 359 ft 10 kts 164°
2026-04-23 22:00 49.00272 2.55405 363 ft 8 kts 165°
2026-04-23 22:00 49.00219 2.55427 354 ft 7 kts 163°
2026-04-23 22:00 49.00174 2.55449 361 ft 6 kts 164°
2026-04-23 22:00 49.00125 2.55470 359 ft 8 kts 163°
2026-04-23 22:01 49.00061 2.55497 360 ft 11 kts 165°
2026-04-23 22:01 48.99981 2.55530 359 ft 13 kts 163°
2026-04-23 22:01 48.99901 2.55585 356 ft 12 kts 145°
2026-04-23 22:01 48.99850 2.55673 361 ft 10 kts 118°
2026-04-23 22:02 48.99830 2.55758 354 ft 6 kts 105°
2026-04-23 22:02 48.99809 2.55797 358 ft 4 kts 149°
2026-04-23 22:02 48.99784 2.55803 363 ft 3 kts 175°
2026-04-23 22:02 48.99765 2.55806 357 ft 2 kts 174°
2026-04-23 22:03 48.99753 2.55807 357 ft 1 kts 174°
2026-04-23 22:03 48.99731 2.55810 356 ft 9 kts 175°
2026-04-23 22:03 48.99662 2.55818 358 ft 9 kts 178°
2026-04-23 22:03 48.99608 2.55830 353 ft 7 kts 148°
2026-04-23 22:04 48.99601 2.55883 353 ft 0 kts 82°
2026-04-23 22:04 48.99619 2.56171 356 ft 64 kts 85°
2026-04-23 22:04 48.99691 2.57183 358 ft 125 kts 84°
2026-04-23 22:05 48.99761 2.58730 497 ft 157 kts 83°
2026-04-23 22:05 48.99821 2.60346 1246 ft 152 kts 85°
2026-04-23 22:05 48.99901 2.61951 1993 ft 151 kts 84°
2026-04-23 22:05 48.99994 2.63526 2731 ft 147 kts 85°
2026-04-23 22:06 49.00073 2.65063 3439 ft 144 kts 86°
2026-04-23 22:06 49.00149 2.66636 3883 ft 159 kts 86°
2026-04-23 22:06 49.00245 2.68409 4219 ft 176 kts 86°
2026-04-23 22:06 49.00358 2.70358 4560 ft 194 kts 86°
2026-04-23 22:07 49.00480 2.72531 4862 ft 220 kts 86°
2026-04-23 22:07 49.00606 2.74995 5204 ft 246 kts 86°
2026-04-23 22:07 49.00740 2.77710 5722 ft 266 kts 86°
2026-04-23 22:07 49.00727 2.80547 6628 ft 267 kts 96°
2026-04-23 22:08 49.00409 2.83328 7569 ft 267 kts 101°
2026-04-23 22:08 49.00015 2.86123 8365 ft 274 kts 102°
2026-04-23 22:08 48.99609 2.88991 9169 ft 279 kts 102°
2026-04-23 22:08 48.99239 2.91916 10005 ft 283 kts 100°
2026-04-23 22:09 48.98912 2.94903 10713 ft 292 kts 99°
2026-04-23 22:09 48.98447 2.98022 11033 ft 313 kts 111°
2026-04-23 22:09 48.97279 3.00918 11365 ft 333 kts 132°
2026-04-23 22:09 48.95391 3.03026 11931 ft 343 kts 153°
2026-04-23 22:10 48.93079 3.04015 12646 ft 350 kts 173°
2026-04-23 22:10 48.90636 3.03713 13377 ft 359 kts 193°
2026-04-23 22:10 48.88381 3.02030 14086 ft 369 kts 216°
2026-04-23 22:10 48.86678 2.99080 14693 ft 378 kts 239°
2026-04-23 22:11 48.85831 2.95286 15321 ft 385 kts 259°
2026-04-23 22:11 48.85410 2.91251 15976 ft 388 kts 260°
2026-04-23 22:11 48.85008 2.87190 16618 ft 391 kts 260°
2026-04-23 22:11 48.84608 2.83087 17251 ft 394 kts 260°
2026-04-23 22:12 48.84202 2.78959 17871 ft 398 kts 260°
2026-04-23 22:12 48.83783 2.74788 18485 ft 401 kts 260°
2026-04-23 22:12 48.83357 2.70589 19019 ft 404 kts 259°
2026-04-23 22:12 48.82921 2.66358 19538 ft 407 kts 259°
2026-04-23 22:13 48.82478 2.62096 20052 ft 410 kts 259°
2026-04-23 22:13 48.82030 2.57808 20565 ft 413 kts 258°
2026-04-23 22:13 48.81578 2.53495 21075 ft 416 kts 258°
2026-04-23 22:13 48.81121 2.49146 21570 ft 419 kts 258°
2026-04-23 22:14 48.80659 2.44771 22056 ft 422 kts 258°
2026-04-23 22:14 48.80213 2.40356 22531 ft 426 kts 261°
2026-04-23 22:14 48.80102 2.35840 22998 ft 431 kts 268°
2026-04-23 22:14 48.80119 2.31275 23465 ft 434 kts 268°
2026-04-23 22:15 48.80131 2.26684 23908 ft 437 kts 268°
2026-04-23 22:15 48.80140 2.22059 24289 ft 440 kts 268°
2026-04-23 22:15 48.80146 2.17406 24688 ft 442 kts 267°
2026-04-23 22:15 48.80151 2.12732 25070 ft 445 kts 267°
2026-04-23 22:16 48.80151 2.08094 25437 ft 447 kts 267°
2026-04-23 22:16 48.80148 2.03312 25827 ft 449 kts 266°
2026-04-23 22:16 48.80140 1.98568 26204 ft 451 kts 266°
2026-04-23 22:16 48.80132 1.93868 26574 ft 453 kts 266°
2026-04-23 22:17 48.80125 1.89020 26952 ft 455 kts 266°
2026-04-23 22:17 48.80114 1.84281 27325 ft 456 kts 266°
2026-04-23 22:17 48.80102 1.79461 27688 ft 458 kts 266°
2026-04-23 22:17 48.80090 1.74612 28053 ft 461 kts 266°
2026-04-23 22:18 48.80080 1.69748 28439 ft 462 kts 265°
2026-04-23 22:18 48.80067 1.64867 28791 ft 463 kts 265°
2026-04-23 22:18 48.80047 1.59976 29124 ft 465 kts 265°
2026-04-23 22:18 48.80018 1.55061 29443 ft 467 kts 265°
2026-04-23 22:19 48.79985 1.50130 29765 ft 469 kts 265°
2026-04-23 22:19 48.79951 1.45181 30073 ft 470 kts 265°
2026-04-23 22:19 48.79920 1.40209 30371 ft 472 kts 265°
2026-04-23 22:19 48.79892 1.35217 30627 ft 474 kts 265°
2026-04-23 22:20 48.79863 1.30226 30986 ft 473 kts 267°
2026-04-23 22:20 48.79833 1.25273 31530 ft 466 kts 268°
2026-04-23 22:20 48.79802 1.20387 32071 ft 461 kts 268°
2026-04-23 22:20 48.79763 1.15548 32511 ft 458 kts 268°
2026-04-23 22:21 48.79718 1.10735 32913 ft 456 kts 269°
2026-04-23 22:21 48.79671 1.05939 33310 ft 453 kts 269°
2026-04-23 22:21 48.79624 1.01108 33713 ft 451 kts 269°
2026-04-23 22:21 48.79577 0.96361 34130 ft 449 kts 269°
2026-04-23 22:22 48.79531 0.91627 34262 ft 448 kts 269°
2026-04-23 22:22 48.79483 0.86914 34281 ft 446 kts 269°
2026-04-23 22:22 48.79377 0.77602 34280 ft 438 kts 271°
2026-04-23 22:23 48.79265 0.68376 34277 ft 437 kts 271°
2026-04-23 22:23 48.79147 0.59161 34277 ft 437 kts 270°
2026-04-23 22:24 48.79252 0.49966 34272 ft 435 kts 277°
2026-04-23 22:24 48.79835 0.40890 34263 ft 435 kts 277°
2026-04-23 22:25 48.80408 0.31778 34288 ft 433 kts 277°
2026-04-23 22:25 48.80977 0.22712 34290 ft 431 kts 277°
2026-04-23 22:26 48.81529 0.13670 34284 ft 430 kts 277°
2026-04-23 22:26 48.82071 0.04650 34280 ft 429 kts 277°
2026-04-23 22:27 48.82602 -0.04363 34260 ft 429 kts 277°
2026-04-23 22:27 48.83134 -0.13370 34261 ft 429 kts 277°
2026-04-23 22:28 48.83660 -0.22381 34261 ft 428 kts 277°
2026-04-23 22:28 48.84169 -0.31390 34261 ft 428 kts 277°
2026-04-23 22:29 48.84650 -0.40402 34258 ft 428 kts 277°
2026-04-23 22:29 48.85117 -0.49424 34258 ft 429 kts 277°
2026-04-23 22:30 48.85577 -0.58442 34255 ft 429 kts 277°
2026-04-23 22:30 48.86041 -0.67467 34257 ft 429 kts 277°
2026-04-23 22:31 48.86505 -0.76505 34254 ft 429 kts 276°
2026-04-23 22:31 48.86956 -0.85537 34254 ft 429 kts 276°
2026-04-23 22:32 48.87325 -0.93043 34237 ft 429 kts 276°
2026-04-23 22:32 48.87763 -1.02080 34239 ft 429 kts 276°
2026-04-23 22:33 48.88189 -1.11118 34237 ft 429 kts 276°
2026-04-23 22:33 48.88609 -1.20167 34241 ft 429 kts 276°
2026-04-23 22:34 48.89024 -1.29220 34239 ft 430 kts 276°
2026-04-23 22:34 48.89430 -1.38280 34230 ft 430 kts 275°
2026-04-23 22:35 48.89827 -1.47350 34228 ft 430 kts 275°
2026-04-23 22:35 48.90222 -1.56424 34238 ft 431 kts 275°
2026-04-23 22:36 48.90616 -1.65507 34237 ft 431 kts 275°
2026-04-23 22:36 48.90846 -1.74601 34239 ft 432 kts 268°
2026-04-23 22:37 48.89676 -1.83584 34220 ft 435 kts 257°
2026-04-23 22:37 48.88226 -1.92507 34221 ft 435 kts 258°
2026-04-23 22:38 48.86781 -2.01447 34225 ft 436 kts 258°
2026-04-23 22:38 48.85319 -2.10379 34219 ft 436 kts 258°
2026-04-23 22:39 48.83860 -2.19242 34193 ft 436 kts 257°
2026-04-23 22:39 48.83123 -2.23707 33926 ft 436 kts 257°
2026-04-23 22:39 48.82386 -2.28163 33654 ft 435 kts 257°
2026-04-23 22:40 48.81647 -2.32616 33385 ft 436 kts 257°
2026-04-23 22:40 48.80906 -2.37073 33119 ft 436 kts 257°
2026-04-23 22:40 48.79413 -2.46027 31683 ft 444 kts 257°
2026-04-23 22:41 48.78652 -2.50584 30753 ft 447 kts 257°
2026-04-23 22:41 48.77889 -2.55134 30128 ft 443 kts 257°
2026-04-23 22:41 48.77130 -2.59630 29443 ft 438 kts 257°
2026-04-23 22:41 48.76377 -2.64065 28791 ft 432 kts 257°
2026-04-23 22:42 48.75632 -2.68449 28161 ft 427 kts 257°
2026-04-23 22:42 48.74897 -2.72783 27539 ft 423 kts 257°
2026-04-23 22:42 48.74169 -2.77076 26921 ft 419 kts 257°
2026-04-23 22:42 48.73447 -2.81333 26320 ft 415 kts 257°
2026-04-23 22:43 48.72727 -2.85550 25715 ft 412 kts 257°
2026-04-23 22:43 48.72009 -2.89728 25120 ft 409 kts 257°
2026-04-23 22:43 48.71292 -2.93881 24540 ft 406 kts 257°
2026-04-23 22:43 48.70579 -2.98005 23980 ft 403 kts 257°
2026-04-23 22:44 48.69867 -3.02092 23386 ft 400 kts 256°
2026-04-23 22:44 48.69161 -3.06142 22857 ft 395 kts 256°
2026-04-23 22:44 48.68493 -3.10146 22382 ft 390 kts 257°
2026-04-23 22:44 48.67864 -3.14110 21907 ft 385 kts 257°
2026-04-23 22:45 48.67254 -3.18036 21451 ft 381 kts 258°
2026-04-23 22:45 48.66653 -3.21920 21004 ft 377 kts 257°
2026-04-23 22:45 48.66051 -3.25764 20560 ft 374 kts 257°
2026-04-23 22:45 48.65449 -3.29578 20091 ft 372 kts 257°
2026-04-23 22:46 48.64843 -3.33367 19633 ft 370 kts 257°
2026-04-23 22:46 48.64233 -3.37135 19166 ft 369 kts 257°
2026-04-23 22:46 48.63623 -3.40896 18697 ft 368 kts 257°
2026-04-23 22:46 48.63013 -3.44652 18178 ft 368 kts 257°
2026-04-23 22:47 48.62405 -3.48396 17679 ft 366 kts 256°
2026-04-23 22:47 48.61798 -3.52124 17197 ft 364 kts 256°
2026-04-23 22:47 48.61258 -3.55853 16706 ft 363 kts 262°
2026-04-23 22:47 48.60942 -3.59632 16224 ft 362 kts 262°
2026-04-23 22:48 48.60630 -3.63405 15742 ft 362 kts 262°
2026-04-23 22:48 48.60317 -3.67169 15257 ft 361 kts 262°
2026-04-23 22:48 48.60005 -3.70880 14774 ft 361 kts 262°
2026-04-23 22:48 48.59684 -3.74641 14291 ft 361 kts 262°
2026-04-23 22:49 48.59364 -3.78400 13760 ft 361 kts 261°
2026-04-23 22:49 48.59042 -3.82161 13252 ft 360 kts 262°
2026-04-23 22:49 48.58720 -3.85898 12759 ft 358 kts 261°
2026-04-23 22:49 48.58394 -3.89619 12242 ft 357 kts 261°
2026-04-23 22:50 48.58071 -3.93321 11743 ft 355 kts 261°
2026-04-23 22:50 48.57750 -3.97009 11226 ft 354 kts 261°
2026-04-23 22:50 48.57431 -4.00684 10736 ft 352 kts 261°
2026-04-23 22:50 48.57120 -4.04279 10595 ft 339 kts 261°
2026-04-23 22:51 48.56817 -4.07742 10476 ft 327 kts 261°
2026-04-23 22:51 48.56523 -4.11084 10354 ft 315 kts 261°
2026-04-23 22:51 48.56233 -4.14323 10145 ft 309 kts 261°
2026-04-23 22:51 48.55947 -4.17504 9891 ft 307 kts 261°
2026-04-23 22:52 48.55658 -4.20713 9471 ft 307 kts 261°
2026-04-23 22:52 48.55374 -4.23887 9106 ft 304 kts 261°
2026-04-23 22:52 48.55090 -4.27045 8705 ft 303 kts 261°
2026-04-23 22:52 48.54807 -4.30192 8307 ft 301 kts 261°
2026-04-23 22:53 48.54526 -4.33316 7927 ft 300 kts 260°
2026-04-23 22:53 48.54244 -4.36414 7569 ft 297 kts 260°
2026-04-23 22:53 48.53962 -4.39486 7196 ft 295 kts 260°
2026-04-23 22:53 48.53683 -4.42528 6738 ft 290 kts 259°
2026-04-23 22:54 48.53405 -4.45550 5960 ft 291 kts 259°
2026-04-23 22:54 48.53127 -4.48569 5278 ft 288 kts 259°
2026-04-23 22:54 48.52864 -4.51467 5058 ft 268 kts 259°
2026-04-23 22:54 48.52548 -4.54114 4904 ft 245 kts 248°
2026-04-23 22:55 48.52011 -4.56480 4755 ft 236 kts 246°
2026-04-23 22:55 48.51489 -4.58772 4613 ft 227 kts 246°
2026-04-23 22:55 48.50980 -4.61008 4462 ft 224 kts 246°
2026-04-23 22:55 48.50474 -4.63227 4298 ft 223 kts 246°
2026-04-23 22:56 48.49968 -4.65440 4168 ft 223 kts 245°
2026-04-23 22:56 48.49460 -4.67660 4001 ft 223 kts 244°
2026-04-23 22:56 48.48697 -4.69576 3861 ft 204 kts 218°
2026-04-23 22:56 48.47589 -4.70725 3730 ft 187 kts 195°
2026-04-23 22:57 48.46359 -4.71122 3567 ft 177 kts 174°
2026-04-23 22:57 48.45133 -4.71080 3419 ft 176 kts 172°
2026-04-23 22:57 48.43911 -4.71038 3268 ft 176 kts 172°
2026-04-23 22:57 48.42695 -4.71000 3161 ft 174 kts 172°
2026-04-23 22:58 48.41530 -4.70721 3101 ft 167 kts 151°
2026-04-23 22:58 48.40666 -4.69620 3007 ft 164 kts 124°
2026-04-23 22:58 48.40310 -4.67989 2870 ft 167 kts 102°
2026-04-23 22:58 48.40136 -4.66261 2729 ft 167 kts 103°
2026-04-23 22:59 48.39959 -4.64536 2586 ft 167 kts 102°
2026-04-23 22:59 48.40019 -4.62819 2444 ft 165 kts 81°
2026-04-23 22:59 48.40382 -4.61270 2336 ft 148 kts 79°
2026-04-23 22:59 48.40708 -4.59867 2240 ft 138 kts 81°
2026-04-23 23:00 48.41015 -4.58517 2157 ft 135 kts 81°
2026-04-23 23:00 48.41313 -4.57192 2034 ft 133 kts 81°
2026-04-23 23:00 48.41605 -4.55881 1923 ft 132 kts 81°
2026-04-23 23:00 48.41895 -4.54575 1831 ft 131 kts 80°
2026-04-23 23:01 48.42186 -4.53269 1711 ft 132 kts 79°
2026-04-23 23:01 48.42478 -4.51942 1487 ft 133 kts 79°
2026-04-23 23:01 48.42775 -4.50636 1289 ft 132 kts 78°
2026-04-23 23:01 48.43075 -4.49328 1050 ft 133 kts 75°
2026-04-23 23:02 48.43382 -4.48001 834 ft 135 kts 73°
2026-04-23 23:02 48.43690 -4.46662 718 ft 135 kts 71°
2026-04-23 23:02 48.43996 -4.45319 576 ft 135 kts 69°
2026-04-23 23:02 48.44305 -4.43971 393 ft 137 kts 70°
2026-04-23 23:03 48.44604 -4.42678 314 ft 113 kts 71°
2026-04-23 23:03 48.44800 -4.41800 320 ft 64 kts 71°
2026-04-23 23:03 48.44899 -4.41379 318 ft 32 kts 70°
2026-04-23 23:03 48.44965 -4.41067 317 ft 30 kts 70°
2026-04-23 23:04 48.45028 -4.40775 319 ft 29 kts 71°
2026-04-23 23:04 48.45057 -4.40656 320 ft 10 kts 144°
2026-04-23 23:04 48.45034 -4.40716 320 ft 7 kts 263°
2026-04-23 23:04 48.45019 -4.40810 317 ft 12 kts 252°
2026-04-23 23:05 48.44989 -4.40953 318 ft 16 kts 250°
2026-04-23 23:05 48.44950 -4.41133 317 ft 20 kts 251°
2026-04-23 23:05 48.44909 -4.41306 317 ft 10 kts 250°
2026-04-23 23:05 48.44858 -4.41334 318 ft 8 kts 168°
2026-04-23 23:06 48.44811 -4.41310 318 ft 7 kts 158°
2026-04-23 23:06 48.44776 -4.41318 318 ft 5 kts 219°
2026-04-23 23:06 48.44764 -4.41355 318 ft 3 kts 248°
2026-04-23 23:06 48.44757 -4.41385 316 ft 3 kts 250°
2026-04-23 23:07 48.44751 -4.41413 318 ft 4 kts 253°
2026-04-23 23:07 48.44742 -4.41462 317 ft 6 kts 255°
2026-04-23 23:07 48.44728 -4.41530 317 ft 7 kts 250°
2026-04-23 23:07 48.44712 -4.41594 317 ft 6 kts 235°
2026-04-23 23:08 48.44678 -4.41592 318 ft 5 kts 159°
2026-04-23 23:08 48.44645 -4.41575 318 ft 5 kts 161°
2026-04-23 23:08 48.44630 -4.41568 318 ft 2 kts 162°
2026-04-23 23:08 48.44624 -4.41564 318 ft 1 kts 161°
2026-04-23 23:09 48.44623 -4.41564 318 ft 0 kts 161°